Location: Unspecified
(0.0000°N, 0.0000°E)
Time: 12:57:28
(UTC+01:00)

ISS - Visible Passes

Search period start: 30 January 2023 00:00
Search period end: 09 February 2023 00:00
Orbit: 413 x 419 km, 51.6° (Epoch: 30 January)

Date Brightness Start Highest point End Pass type
(mag) Time Alt. Az. Time Alt. Az. Time Alt. Az.
06 Feb -1.1 21:01:26 10° NW 21:02:14 16° NW 21:02:14 16° NW visible
07 Feb -3.8 20:12:34 10° NNW 20:15:51 58° NE 20:18:11 18° SE visible
08 Feb -0.3 21:02:34 10° WSW 21:03:30 11° SW 21:04:25 10° SW visible
